EW8311 Weather Reports


time (UTC)temp
C
wind
direction
speed
KPH
gust
KPH
rain 1hr
cm
rain 24hr
cm
rain mn
cm
humidity
%
barometer
mb
20200531070059 28 328 4.8 8.0 0.00 0.00 0.00 27 1002.9
20200531064611 28 330 0.0 4.8 0.00 0.00 0.00 28 1002.6
20200531063118 28 311 1.6 4.8 0.00 0.00 0.00 28 1002.6
20200531061546 30 113 0.0 4.8 0.00 0.00 0.00 22 1002.0
20200531060055 30 92 0.0 1.6 0.00 0.00 0.00 25 1002.2
20200531054638 31 354 0.0 11.3 0.00 0.00 0.00 22 1002.3
20200531053059 31 338 6.4 19.3 0.00 0.00 0.00 17 1002.1
20200531051554 29 318 3.2 8.0 0.00 0.00 0.00 25 1002.4
20200531050105 29 297 3.2 6.4 0.00 0.00 0.00 27 1002.9
20200531044610 31 124 0.0 3.2 0.00 0.00 0.00 23 1002.4
20200531043309 31 94 0.0 9.7 0.00 0.00 0.00 22 1002.0
20200531041604 30 316 1.6 8.0 0.00 0.00 0.00 24 1002.3
20200531040112 30 313 0.0 3.2 0.00 0.00 0.00 25 1002.6
20200531034743 30 327 0.0 4.8 0.00 0.00 0.00 25 1003.0
20200531033044 31 308 1.6 11.3 0.00 0.00 0.00 23 1003.2
20200531031601 31 296 8.0 25.7 0.00 0.00 0.00 23 1002.7
20200531030027 31 307 12.9 25.7 0.00 0.00 0.00 22 1002.5
20200531024529 31 335 11.3 20.9 0.00 0.00 0.00 21 1002.9
20200531023043 32 284 0.0 4.8 0.00 0.00 0.00 20 1002.7
20200531021535 32 328 6.4 11.3 0.00 0.00 0.00 19 1002.4
20200531020049 33 274 0.0 4.8 0.00 0.00 0.00 19 1002.2
20200531014540 33 330 3.2 9.7 0.00 0.00 0.00 18 1001.8
20200531013027 33 342 3.2 9.7 0.00 0.00 0.00 18 1001.7
20200531011547 33 356 4.8 9.7 0.00 0.00 0.00 18 1001.4
20200531010127 33 311 8.0 24.1 0.00 0.00 0.00 17 1000.8
20200531004533 33 319 9.7 19.3 0.00 0.00 0.00 18 1000.6
20200531003023 34 318 8.0 17.7 0.00 0.00 0.00 18 1000.6
20200531001529 34 330 8.0 17.7 0.00 0.00 0.00 18 1000.7
20200531000022 34 64 0.0 6.4 0.00 0.00 0.00 16 1000.8
20200530234556 35 129 0.0 0.0 0.00 0.00 0.00 16 1001.1
20200530233030 35 271 0.0 12.9 0.00 0.00 0.00 16 1000.9
20200530231533 35 233 1.6 14.5 0.00 0.00 0.00 18 1000.7
20200530230041 35 284 0.0 19.3 0.00 0.00 0.00 18 1000.8
20200530224524 36 303 6.4 17.7 0.00 0.00 0.00 16 1000.7
20200530223052 37 290 6.4 12.9 0.00 0.00 0.00 16 1000.5
20200530221541 37 271 0.0 9.7 0.00 0.00 0.00 16 1000.3
20200530220050 37 278 1.6 6.4 0.00 0.00 0.00 15 1000.6
20200530214620 38 233 0.0 6.4 0.00 0.00 0.00 14 1000.6
20200530213036 39 262 1.6 11.3 0.00 0.00 0.00 15 1000.8
20200530211533 40 93 0.0 9.7 0.00 0.00 0.00 13 1001.1
20200530210016 38 320 3.2 6.4 0.00 0.00 0.00 14 1001.3
20200530204533 38 132 1.6 9.7 0.00 0.00 0.00 15 1001.6
20200530203005 38 299 4.8 12.9 0.00 0.00 0.00 15 1001.9
20200530201650 38 102 1.6 12.9 0.00 0.00 0.00 15 1002.1
20200530200218 38 323 8.0 17.7 0.00 0.00 0.00 16 1002.2
20200530194624 38 259 4.8 16.1 0.00 0.00 0.00 16 1002.5
20200530193147 38 34 4.8 16.1 0.00 0.00 0.00 17 1002.5
20200530191640 37 314 1.6 9.7 0.00 0.00 0.00 16 1002.7
20200530190112 37 327 1.6 9.7 0.00 0.00 0.00 17 1003.1
20200530184647 37 308 3.2 9.7 0.00 0.00 0.00 17 1003.3
20200530183129 37 289 3.2 8.0 0.00 0.00 0.00 16 1003.6
20200530181541 37 309 1.6 9.7 0.00 0.00 0.00 16 1004.0
20200530180110 36 1 0.0 4.8 0.00 0.00 0.00 16 1004.1
20200530174609 36 270 1.6 6.4 0.00 0.00 0.00 19 1004.3
20200530173054 35 140 1.6 4.8 0.00 0.00 0.00 19 1004.5
20200530171634 35 242 1.6 6.4 0.00 0.00 0.00 21 1004.6
20200530170039 33 283 0.0 6.4 0.00 0.00 0.00 23 1004.6
20200530164533 33 281 0.0 4.8 0.00 0.00 0.00 24 1004.7
20200530163054 33 276 0.0 4.8 0.00 0.00 0.00 23 1004.8
20200530161515 32 294 0.0 4.8 0.00 0.00 0.00 25 1004.8
20200530160010 31 227 0.0 1.6 0.00 0.00 0.00 25 1004.9
20200530154513 30 269 0.0 6.4 0.00 0.00 0.00 29 1005.1
20200530153007 30 321 0.0 3.2 0.00 0.00 0.00 31 1005.1
20200530151533 30 331 1.6 6.4 0.00 0.00 0.00 28 1005.2
20200530150007 30 305 0.0 1.6 0.00 0.00 0.00 27 1005.2
20200530144500 31 103 0.0 0.0 0.00 0.00 0.00 25 1005.3
20200530143139 31 105 0.0 0.0 0.00 0.00 0.00 28 1005.2
20200530141606 30 103 0.0 0.0 0.00 0.00 0.00 31 1005.1
20200530140209 28 109 0.0 0.0 0.00 0.00 0.00 34 1005.1
20200530134643 27 109 0.0 1.6 0.00 0.00 0.00 36 1005.1
20200530133134 25 321 0.0 1.6 0.00 0.00 0.00 39 1005.0
20200530131646 26 30 0.0 0.0 0.00 0.00 0.00 38 1005.0
20200530130117 25 31 0.0 0.0 0.00 0.00 0.00 35 1005.0
20200530124621 25 31 0.0 0.0 0.00 0.00 0.00 36 1005.0
20200530123125 23 31 0.0 0.0 0.00 0.00 0.00 35 1004.9
20200530121704 24 30 0.0 0.0 0.00 0.00 0.00 36 1004.6
20200530120200 24 30 0.0 0.0 0.00 0.00 0.00 35 1004.5
20200530114740 23 31 0.0 0.0 0.00 0.00 0.00 35 1004.2
20200530113142 25 31 0.0 0.0 0.00 0.00 0.00 37 1004.3
20200530111622 25 31 0.0 0.0 0.00 0.00 0.00 35 1004.4
20200530110123 25 239 0.0 1.6 0.00 0.00 0.00 36 1004.4
20200530104600 25 45 0.0 1.6 0.00 0.00 0.00 34 1004.3
20200530103050 27 29 0.0 1.6 0.00 0.00 0.00 30 1004.4
20200530101559 26 339 0.0 1.6 0.00 0.00 0.00 31 1004.4
20200530100114 27 219 0.0 0.0 0.00 0.00 0.00 30 1004.3
20200530094607 27 219 0.0 0.0 0.00 0.00 0.00 31 1004.3
20200530093101 29 164 3.2 8.0 0.00 0.00 0.00 26 1004.2
20200530091634 29 325 1.6 8.0 0.00 0.00 0.00 25 1004.1
20200530090041 28 324 0.0 1.6 0.00 0.00 0.00 29 1004.4
20200530084528 28 122 0.0 4.8 0.00 0.00 0.00 27 1004.8
20200530083104 30 136 0.0 8.0 0.00 0.00 0.00 25 1004.8
20200530081528 28 323 4.8 9.7 0.00 0.00 0.00 27 1004.7
20200530080026 29 335 1.6 4.8 0.00 0.00 0.00 28 1005.1
20200530074514 29 342 1.6 4.8 0.00 0.00 0.00 27 1005.4
20200530073022 29 336 0.0 4.8 0.00 0.00 0.00 26 1005.6
20200530071538 28 319 1.6 4.8 0.00 0.00 0.00 28 1005.7